CAPE
0 0 2 0 2 0 0 0 0 1 0 0 0 0 0 0 0 0 0 0 0 0 0 0 0 0 0 20 79 28 40 31 34 52 63 59 54 65 94 24 20 94 61 173 323
0 1 1 2 0 1 0 1 2 0 0 0 0 0 0 0 0 0 0 0 0 0 0 0 0 0 0 58 18 34 29 57 36 73 119 161 32 42 21 56 65 23 173 298 314
2 0 0 0 0 0 1 1 0 0 0 0 0 0 0 0 0 0 0 0 0 0 0 0 0 0 0 44 22 6 44 57 97 122 79 53 2 21 16 39 6 1 67 234 311
0 0 0 0 0 0 1 1 0 0 0 0 0 0 0 0 0 0 0 0 0 0 0 0 0 0 0 0 20 4 11 17 28 63 68 52 65 10 22 71 20 62 90 187 266
0 0 0 0 0 0 0 0 0 0 0 0 0 0 0 0 0 0 0 0 0 0 0 0 0 0 0 3 0 3 16 13 22 55 17 52 88 9 70 47 86 140 154 159 188
0 0 0 0 0 0 0 0 0 0 0 0 0 0 0 0 0 0 0 0 0 0 0 0 0 0 0 0 0 42 9 7 1 17 19 52 125 42 58 43 43 87 98 113 111
0 0 0 0 0 0 0 0 0 0 0 0 0 0 0 0 0 0 0 0 0 0 0 0 0 0 0 0 65 47 38 64 32 3 50 61 61 55 1 30 51 48 50 77 62
0 0 0 0 0 0 0 0 0 0 0 0 0 0 0 0 0 0 0 0 0 0 0 0 0 0 0 8 74 69 56 46 1 3 71 47 38 26 19 34 41 33 22 42 76
0 0 0 0 0 0 0 0 0 0 0 0 0 0 0 0 0 0 0 0 0 0 0 0 0 0 0 0 30 48 66 47 18 19 59 43 19 14 7 20 24 53 51 53 102
0 0 0 0 0 0 0 0 0 0 0 0 0 0 0 0 0 0 0 0 0 0 0 0 0 0 0 0 0 0 3 39 25 0 0 4 68 8 4 18 56 69 54 63 107
0 0 0 0 0 0 0 0 0 0 0 0 0 0 0 0 0 0 0 0 0 0 0 0 0 0 0 0 0 59 46 36 8 0 18 29 26 0 0 17 0 44 54 68 77
0 0 0 0 0 0 0 0 0 0 0 0 0 0 0 0 0 0 0 0 0 0 0 0 0 0 0 0 0 0 6 0 2 0 0 55 1 15 1 10 4 4 33 74 87
0 0 0 0 0 0 0 0 0 0 0 0 0 0 0 0 0 0 0 0 0 0 0 0 0 0 0 0 0 0 0 0 2 7 1 27 10 8 0 2 46 7 25 46 68
0 0 0 0 0 0 0 0 0 0 0 0 0 0 0 0 0 0 0 0 0 0 0 0 0 0 0 0 0 0 18 52 88 35 44 66 10 33 8 5 8 30 14 43 32
0 0 0 0 0 0 0 0 0 0 0 0 0 0 0 0 0 0 0 0 0 0 0 0 0 0 0 0 0 64 144 108 99 1 12 52 18 0 5 9 14 4 16 45 26
0 0 0 0 0 0 0 0 0 0 0 0 0 0 0 0 0 0 0 0 0 0 0 0 0 0 0 0 8 141 68 15 0 0 0 0 8 0 0 0 13 0 27 35 26
0 0 0 0 0 0 0 0 0 0 0 0 0 0 0 0 0 0 0 0 0 0 0 0 0 0 0 1 116 26 0 0 2 0 3 0 0 0 0 0 8 11 24 14 19
0 0 0 0 0 0 0 0 0 0 0 0 0 0 0 0 0 0 0 0 0 0 0 0 0 0 0 0 0 22 2 5 0 1 0 0 0 0 0 0 0 3 21 46 53
0 0 0 0 0 0 0 0 0 0 0 0 0 0 0 0 0 0 0 0 0 0 0 0 0 0 19 70 150 121 38 0 0 0 0 0 0 14 88 67 91 1 27 40 51
0 0 0 0 0 0 0 0 0 0 0 0 0 0 0 0 0 0 0 0 0 0 0 0 0 0 5 349 8 171 0 8 0 0 0 0 0 0 14 126 83 45 43 46 48
0 0 0 0 0 0 0 0 0 0 0 0 0 0 0 0 0 0 2 1 4 0 0 0 0 2 15 137 95 15 0 0 0 0 0 0 0 28 94 100 141 71 76 76 70
0 0 0 0 0 0 0 0 0 0 0 0 0 0 0 0 0 0 2 2 6 0 0 0 0 11 1 0 0 0 0 0 0 0 0 0 0 75 72 113 211 196 117 76 54
0 0 0 0 0 0 0 0 0 0 0 0 0 0 0 0 1 2 2 4 0 0 1 2 19 40 30 5 0 0 0 0 0 0 0 0 0 105 78 62 54 72 69 9 35
0 0 0 0 0 0 0 0 0 0 0 0 0 0 0 0 0 4 10 4 0 0 0 7 3 11 30 2 0 4 58 0 0 0 0 0 8 117 33 47 29 89 245 153 53
0 0 0 0 0 0 0 0 0 0 0 0 0 0 0 0 0 0 0 0 0 0 0 0 3 28 17 328 478 463 310 97 0 0 0 15 115 77 18 115 168 336 474 419 163
0 0 0 0 0 0 0 0 0 0 0 0 0 0 0 0 0 0 0 0 0 0 0 0 0 0 34 180 41 176 429 686 553 241 216 316 290 40 133 294 227 342 361 407 438
0 0 0 0 0 0 0 0 0 0 0 0 0 0 0 0 0 0 0 0 0 0 0 0 0 0 0 13 1 0 193 289 367 438 370 289 76 120 244 301 195 185 124 202 255
CIN
0 0 0 0 0 0 0 0 0 0 0 0 0 0 0 0 0 0 0 0 0 0 0 0 0 0 0 -76 -167 -160 -48 -32 -61 -25 -64 -81 -87 -91 -104 -116 -14 -87 -105 -125 -79
0 0 0 0 0 -1 0 0 0 0 0 0 0 0 0 0 0 0 0 0 0 0 0 0 0 0 0 -80 -114 -85 -36 -33 -92 -90 -71 -50 -74 -99 -119 -92 -89 -118 -99 -87 -85
0 0 -1 0 0 0 0 0 0 0 0 0 0 0 0 0 0 0 0 0 0 0 0 0 0 0 0 -95 -108 -108 -37 -80 -81 -64 -103 -88 -29 -81 -101 -80 -18 -9 -153 -109 -74
0 0 0 0 0 0 0 0 0 0 0 0 0 0 0 0 0 0 0 0 0 0 0 0 0 0 0 0 -109 -60 -94 -96 -94 -69 -66 -60 -54 -73 -58 -56 -98 -131 -149 -148 -93
0 0 0 0 0 0 0 0 0 0 0 0 0 0 0 0 0 0 0 0 0 0 0 0 0 0 0 -63 0 -71 -80 -68 -74 -50 -58 -62 -20 -49 -56 -80 -115 -120 -115 -136 -130
0 0 0 0 0 0 0 0 0 0 0 0 0 0 0 0 0 0 0 0 0 0 0 0 0 0 0 0 0 -84 -119 -77 -41 -53 -53 -39 -15 -30 -72 -63 -103 -109 -116 -106 -137
0 0 0 0 0 0 0 0 0 0 0 0 0 0 0 0 0 0 0 0 0 0 0 0 0 0 0 0 -112 -118 -90 -117 -57 -56 -24 -70 -29 -31 -88 -61 -87 -106 -116 -108 -127
0 0 0 0 0 0 0 0 0 0 0 0 0 0 0 0 0 0 0 0 0 0 0 0 0 0 0 -51 -75 -74 -60 -35 -61 -28 -52 -34 -38 -87 -87 -69 -76 -103 -76 -114 -110
0 0 0 0 0 0 0 0 0 0 0 0 0 0 0 0 0 0 0 0 0 0 0 0 0 0 0 0 -47 -67 -28 -35 -21 -6 -6 -8 -27 -88 -63 -52 -58 -89 -109 -101 -87
0 0 0 0 0 0 0 0 0 0 0 0 0 0 0 0 0 0 0 0 0 0 0 0 0 0 0 0 0 0 -28 -60 -43 0 0 -11 -2 -70 -48 -38 -51 -74 -89 -87 -85
0 0 0 0 0 0 0 0 0 0 0 0 0 0 0 0 0 0 0 0 0 0 0 0 0 0 0 0 0 -60 -58 -37 -61 -1 -24 -14 -7 -1 -1 -50 -10 -38 -83 -87 -79
0 0 0 0 0 0 0 0 0 0 0 0 0 0 0 0 0 0 0 0 0 0 0 0 0 0 0 0 0 0 -58 0 -21 0 0 -13 -12 -18 -41 -51 -67 -64 -78 -70 -70
0 0 0 0 0 0 0 0 0 0 0 0 0 0 0 0 0 0 0 0 0 0 0 0 0 0 0 0 0 0 0 0 -13 -85 -15 -15 -2 -17 0 -24 -27 -66 -68 -87 -83
0 0 0 0 0 0 0 0 0 0 0 0 0 0 0 0 0 0 0 0 0 0 0 0 0 0 0 0 0 -16 -89 -35 -33 -42 -10 -23 -8 -3 -28 -49 -23 -26 -80 -104 -102
0 0 0 0 0 0 0 0 0 0 0 0 0 0 0 0 0 0 0 0 0 0 0 0 0 0 0 0 -4 -53 -68 -34 -65 -76 -60 -42 -67 0 -71 -37 -47 -54 -70 -125 -102
0 0 0 0 0 0 0 0 0 0 0 0 0 0 0 0 0 0 0 0 0 0 0 0 0 0 0 0 -91 -64 -47 -42 0 0 0 0 -101 0 0 0 -93 -6 -91 -135 -151
0 0 0 0 0 0 0 0 0 0 0 0 0 0 0 0 0 0 0 0 0 0 0 0 0 0 0 -17 -65 -48 0 0 -16 -18 -25 0 0 0 0 0 -131 -131 -101 -127 -160
0 0 0 0 0 0 0 0 0 0 0 0 0 0 0 0 0 0 0 0 0 0 0 0 0 0 0 0 0 -105 -7 -18 0 -16 -2 0 0 0 0 0 0 -107 -94 -122 -171
0 0 0 0 0 0 0 0 0 0 0 0 0 0 0 0 0 0 0 0 0 0 0 0 0 0 -89 -81 -81 -99 -68 0 0 0 0 0 0 -115 -121 -127 -122 -38 -149 -132 -153
0 0 0 0 0 0 0 0 0 0 0 0 0 0 0 0 0 0 0 0 0 0 0 0 0 0 -9 -77 -14 -62 0 -48 0 0 0 0 -10 0 -113 -125 -206 -203 -205 -160 -136
0 0 0 0 0 0 0 0 0 0 0 0 0 0 0 0 0 0 -31 -65 -88 0 0 0 0 -8 -75 -83 -67 -69 0 0 0 0 0 -18 0 -223 -186 -179 -135 -223 -219 -210 -174
0 0 0 0 0 0 0 0 0 0 0 0 0 0 0 0 0 0 -45 -101 -139 0 0 0 -3 -55 -91 0 0 0 0 0 0 0 0 0 0 -310 -292 -226 -165 -124 -143 -194 -210
0 0 0 0 0 0 0 0 0 0 0 0 0 0 0 0 -25 -46 -70 -89 0 0 -73 -108 -33 -32 -89 -93 0 0 0 0 0 0 0 0 0 -325 -314 -291 -297 -253 -288 -356 -288
0 0 0 0 0 0 0 0 0 0 0 0 0 0 0 0 0 -41 -76 -97 0 0 0 -189 -139 -72 -38 -131 0 -41 -121 0 0 0 0 0 -125 -276 -354 -327 -391 -318 -252 -252 -313
0 0 0 0 0 0 0 0 0 0 0 0 0 0 0 0 0 0 0 0 0 0 0 0 -87 -128 -129 -114 -91 -97 -95 -121 0 0 0 -75 -154 -296 -385 -285 -263 -198 -175 -165 -230
0 0 0 0 0 0 0 0 0 0 0 0 0 0 0 0 0 0 0 0 0 0 0 0 0 0 -117 -84 -133 -74 -104 -109 -150 -220 -193 -195 -192 -382 -288 -212 -238 -212 -210 -180 -144
0 0 0 0 -8 0 0 0 0 0 0 0 0 0 0 0 0 0 0 0 0 0 0 0 0 0 -28 -131 -46 0 -93 -101 -135 -184 -171 -110 -288 -284 -230 -224 -261 -257 -296 -254 -218
Wind_Speed
24 24 24 22 22 21 21 21 18 14 12 19 22 22 22 23 23 17 20 8 9 8 8 9 11 12 14 12 19 18 7 5 5 16 15 16 16 21 20 25 22 20 27 29 29
25 25 24 23 23 23 22 22 22 22 22 22 22 22 22 23 20 19 13 8 7 8 7 9 10 11 13 13 13 9 5 8 10 13 14 18 18 19 20 22 22 26 27 29 29
25 25 25 24 24 24 23 23 22 22 22 21 22 22 22 21 16 12 16 3 4 7 7 9 8 12 12 12 12 10 6 13 8 12 14 17 18 10 19 19 24 28 29 29 29
25 25 25 25 24 24 24 23 23 22 22 21 21 22 22 14 10 13 16 3 2 5 7 7 8 11 11 12 11 9 11 17 8 15 14 7 20 18 20 19 26 28 29 30 29
26 26 25 25 25 24 24 23 23 23 22 21 21 21 15 13 12 17 15 3 2 4 3 4 6 9 11 13 15 15 21 15 7 24 19 19 17 18 16 20 24 27 28 29 28
26 26 26 25 25 24 24 24 24 23 22 21 20 19 15 12 15 15 9 5 3 6 8 8 7 13 14 16 19 12 10 17 15 11 19 20 8 13 24 19 24 26 27 28 28
27 27 26 25 25 25 25 25 24 23 22 20 19 17 14 13 12 11 8 8 9 10 9 13 11 11 14 14 15 13 14 14 18 13 13 17 14 21 17 18 23 24 26 27 28
28 28 27 26 26 25 26 26 24 21 20 18 17 17 13 12 13 11 10 11 10 12 13 14 12 15 14 10 13 14 14 16 17 19 19 20 7 10 19 21 22 21 24 27 27
30 28 27 27 26 26 26 27 20 17 17 17 17 17 14 15 14 12 8 13 9 11 12 14 9 13 14 13 14 16 15 13 11 17 19 22 17 9 18 22 20 19 23 26 26
30 29 29 28 26 26 28 23 19 17 17 16 17 16 15 16 14 12 9 8 10 7 11 12 13 15 14 13 19 18 18 17 18 21 24 29 28 4 17 20 20 21 22 27 29
30 30 29 28 25 24 23 19 21 19 18 15 16 16 17 17 14 11 7 7 12 12 15 15 16 19 18 16 15 13 17 17 16 19 23 27 26 7 9 18 11 21 22 27 30
28 31 29 28 25 18 18 20 21 20 19 16 13 14 13 14 15 12 5 8 11 14 15 18 22 19 16 14 16 16 19 21 19 15 14 18 26 21 10 31 25 19 19 25 27
26 31 29 28 21 16 18 18 19 22 19 19 16 16 16 14 15 10 5 7 10 13 16 22 19 16 20 20 20 19 24 20 23 17 21 17 21 15 30 27 18 10 21 17 26
13 30 29 25 15 16 16 18 20 16 20 21 19 17 15 15 16 11 5 8 11 9 13 21 22 23 23 23 20 20 22 22 14 12 21 17 20 21 23 30 16 10 24 18 25
30 30 22 16 13 14 16 23 17 16 20 18 18 17 16 15 16 13 9 8 11 11 12 17 21 23 26 27 20 20 17 19 15 18 20 22 21 21 9 30 23 16 21 15 26
27 24 15 13 12 12 16 21 16 18 21 19 17 16 17 18 17 14 9 10 11 12 16 24 21 22 23 18 17 8 11 17 17 18 23 21 23 22 9 25 24 12 21 11 25
24 2 11 13 13 14 18 17 17 19 16 18 17 17 17 18 19 15 9 7 10 12 15 22 23 20 16 13 15 19 18 21 23 24 24 19 19 24 15 9 20 24 17 12 20
21 15 13 13 13 16 17 16 18 18 17 17 15 16 15 17 17 15 12 10 13 10 16 16 16 15 15 19 22 23 20 20 22 24 24 19 20 18 10 5 10 24 11 11 15
14 14 14 14 14 13 17 18 17 17 16 16 16 14 14 15 12 13 15 16 12 5 7 14 14 15 15 16 12 21 24 20 16 17 21 20 20 19 15 14 18 9 16 19 13
17 14 14 14 16 15 16 17 15 15 15 15 16 14 14 17 11 12 13 14 13 14 15 16 16 15 12 10 14 19 10 18 17 19 20 18 18 13 14 12 10 6 7 8 10
16 13 14 14 14 15 15 16 16 14 12 15 17 14 15 16 11 12 12 13 14 15 11 15 16 15 12 17 15 14 21 15 12 13 16 15 15 15 16 12 9 4 14 23 23
14 11 12 11 12 14 15 16 17 17 14 15 16 16 15 15 13 12 11 10 18 15 13 12 13 15 14 17 15 17 20 16 17 18 14 14 15 15 12 11 12 10 20 27 30
13 10 10 10 10 12 15 15 13 15 16 15 15 14 15 14 13 13 13 10 17 15 14 14 14 14 14 16 14 14 19 20 21 21 17 17 17 14 14 12 13 14 18 20 18
12 7 9 8 8 10 14 13 14 14 16 17 15 14 13 15 15 13 17 16 18 15 14 13 13 12 13 17 17 18 18 20 24 29 23 21 17 18 16 16 17 17 19 18 14
12 8 8 7 8 9 10 10 10 12 16 18 17 14 13 13 15 16 17 20 17 19 17 12 10 7 7 10 11 14 18 17 22 23 25 22 18 18 16 15 15 15 16 14 12
11 10 12 10 10 11 9 9 7 10 13 15 15 15 14 15 15 15 14 16 19 20 16 16 11 12 15 11 14 14 15 15 17 18 16 12 16 12 12 13 14 15 15 14 14
16 14 12 12 12 11 10 10 8 9 14 13 14 15 15 14 15 18 19 19 18 17 14 16 16 14 19 19 21 25 21 18 16 17 16 20 13 10 10 12 14 15 15 15 15
Wind_Direction
338 334 326 319 312 310 303 300 276 242 204 251 285 288 280 280 277 311 210 343 346 12 355 23 4 358 316 311 177 216 354 30 328 101 82 82 75 123 66 95 127 119 117 122 121
347 343 335 326 323 321 320 318 318 308 309 302 299 298 295 292 303 212 309 330 345 68 24 36 24 5 283 268 279 325 2 282 273 252 240 108 98 91 80 89 105 97 99 110 118
348 346 342 335 334 334 333 331 326 325 326 325 319 307 305 310 323 333 306 78 78 52 10 326 15 321 302 285 287 319 353 86 305 257 236 102 102 42 86 95 119 112 117 122 123
349 348 350 349 345 338 333 329 326 325 325 325 321 311 299 342 340 329 308 17 76 325 321 340 343 346 332 291 294 315 256 103 281 243 246 55 209 104 117 126 123 121 120 126 127
357 354 350 348 343 339 332 325 326 330 328 325 321 319 336 324 330 317 319 37 327 317 321 335 9 345 331 275 267 252 204 126 68 200 241 237 243 127 97 96 112 118 126 129 129
4 0 358 352 344 336 331 331 327 331 332 331 326 324 332 322 322 330 17 29 310 295 285 289 330 299 302 274 257 281 298 242 289 278 244 243 285 108 161 109 117 123 133 138 135
7 5 5 0 347 337 332 325 322 334 336 338 335 336 330 318 333 334 10 332 305 286 287 272 290 307 305 307 294 306 316 296 280 272 272 262 268 165 144 126 126 129 139 140 148
2 359 355 347 341 333 323 316 332 350 355 353 348 343 340 332 329 318 317 322 305 286 281 278 279 292 306 315 310 297 300 290 278 242 255 252 310 292 142 140 137 130 136 146 153
360 357 353 346 336 326 315 325 2 14 20 17 4 357 359 331 319 317 315 312 312 282 278 277 286 287 291 293 301 291 291 298 284 264 276 252 278 290 138 144 143 135 141 147 150
1 354 341 336 333 337 331 3 27 26 23 26 14 5 3 350 337 322 309 311 305 290 277 271 276 278 286 290 282 287 281 284 279 278 282 264 240 247 146 147 146 144 144 154 160
359 349 332 330 343 1 11 26 11 12 15 28 19 19 -0 0 348 338 331 306 296 283 265 263 263 262 272 279 290 302 282 284 291 301 282 264 256 217 171 151 155 156 150 159 169
5 342 324 324 349 23 36 21 24 19 23 42 50 35 42 29 11 9 22 321 293 275 268 261 256 263 274 280 284 287 283 280 284 318 326 256 256 245 189 225 173 157 158 161 163
10 325 322 331 358 45 32 36 35 14 48 48 43 36 33 45 16 23 53 341 311 283 268 255 262 260 264 271 275 277 276 286 272 287 244 281 288 266 231 240 256 248 163 160 163
14 318 334 312 43 41 36 39 15 51 31 35 35 38 49 36 21 22 33 337 315 292 279 267 265 263 258 263 267 271 287 279 290 284 276 278 272 266 238 238 246 270 166 162 162
310 330 4 28 54 50 38 349 23 41 12 37 42 50 49 40 24 16 357 341 317 301 289 271 266 261 256 257 257 268 282 292 294 289 287 266 263 262 274 244 178 247 168 169 167
298 350 31 54 71 82 359 357 39 30 19 34 46 49 52 32 24 10 356 341 331 313 290 268 276 268 265 263 253 266 288 294 293 291 273 283 261 264 315 185 173 200 170 183 167
290 136 69 78 67 52 347 28 36 27 44 39 52 49 44 34 24 19 30 360 336 314 291 279 268 261 259 258 254 258 265 275 274 269 267 299 286 280 259 121 164 174 174 178 166
286 50 82 103 74 17 30 45 31 41 43 33 45 41 41 31 29 15 3 341 310 327 303 291 264 254 252 258 255 253 254 266 274 268 272 291 283 301 334 24 145 174 190 184 173
301 58 73 81 122 62 31 37 42 41 41 33 32 34 37 24 41 31 345 321 316 350 334 293 266 272 259 253 256 251 248 267 285 289 275 281 288 290 305 304 275 153 161 172 189
24 48 53 64 86 49 35 40 46 45 36 35 31 43 39 24 33 20 357 356 322 293 285 279 269 275 275 255 271 243 249 258 280 271 268 281 277 286 297 321 327 151 170 197 216
21 44 38 68 57 28 32 37 35 48 59 40 34 43 31 28 25 25 37 16 10 299 300 275 271 275 266 259 245 239 251 269 281 281 275 281 277 302 289 309 18 325 257 240 248
16 41 30 57 27 26 32 30 22 32 50 41 43 41 36 40 27 334 41 37 318 313 301 283 281 277 273 270 268 260 253 257 258 261 282 285 285 284 299 312 300 296 175 219 206
7 27 39 29 33 22 15 20 38 30 28 32 26 18 17 20 19 326 318 3 316 328 300 282 282 273 272 266 272 273 268 259 257 253 266 272 273 280 286 310 312 288 295 278 186
6 25 16 20 19 16 12 26 24 40 29 20 17 7 17 10 359 333 297 304 292 326 316 291 288 278 267 266 271 268 277 271 260 250 257 267 272 274 281 295 299 298 287 288 289
2 11 4 14 7 12 23 29 34 37 20 18 21 21 24 13 350 335 307 288 294 283 292 332 317 293 308 286 296 288 282 282 264 264 260 258 266 274 283 297 296 336 346 346 334
349 346 328 344 354 358 26 23 64 36 19 19 30 30 24 3 342 326 324 302 289 281 282 288 304 302 272 286 297 297 306 297 284 277 280 276 276 310 317 325 328 333 341 344 345
316 314 321 324 342 355 10 14 61 40 9 29 42 21 20 19 340 311 293 285 286 298 308 289 283 291 271 271 276 269 287 303 292 287 282 271 283 292 315 325 327 330 339 337 333